Location: Unspecified
(34.4950°S, 58.5160°W)
Time: 04:34:17
(UTC+00:00)

Cosmos 2084 - Pass Details

Date: 04 December 2021
Orbit: 519 x 661 km, 62.8° (Epoch: 23 January)

Event Time Altitude Azimuth Distance (km) Brightness Sun altitude
Rises 23:41:34 0° 346° (NNW) 2,976 6.8 -9.0°
Reaches altitude 10° 23:43:57 10° 352° (N) 2,076 6.0 -9.4°
Maximum altitude 23:48:28 44° 64° (ENE) 916 4.0 -10.2°
Drops below altitude 10° 23:53:00 10° 135° (SE) 2,087 6.2 -10.9°
Sets 23:55:23 0° 141° (SE) 2,992 7.1 -11.3°
